This demonstration page uses our WeatherBlox Daily Observations layout. Learn more.

Left ArrowRight Arrow

40.97296, -117.73568

Hourly Observations for July 6, 2022

Temp ( °F °C ) Dew Point ( °F °C ) Humidity (%) Winds ( mph kmh ) Pressure ( in mb ) Visibility ( mi km ) Precip ( " mm )
12:56 am 00:56 Clear 67 19.4 40 4.4 37 37 W 3 6 29.81 1010 10 16 0.00 0.00
1:56 am 01:56 Clear 67 19.4 40 4.4 37 37 Calm 29.82 1010 10 16 0.00 0.00
2:56 am 02:56 Clear 66 18.9 40 4.4 39 39 Calm 29.82 1010 10 16 0.00 0.00
3:56 am 03:56 Clear 65 18.3 41 5 42 42 WNW 3 6 29.82 1010 10 16 0.00 0.00
4:56 am 04:56 Clear 63 17.2 41 5 45 45 VRB 5 7 29.84 1010 10 16 0.00 0.00
5:56 am 05:56 Sunny 60 15.6 41 5 50 50 undefined N/A 29.86 1011 10 16 0.00 0.00
6:56 am 06:56 Sunny 67 19.4 43 6.1 42 42 Calm 29.85 1011 10 16 0.00 0.00
7:56 am 07:56 Sunny 72 22.2 43 6.1 35 35 W 7 11 29.86 1011 10 16 0.00 0.00
8:56 am 08:56 Sunny 74 23.3 43 6.1 33 33 W 8 13 29.87 1012 10 16 0.00 0.00
9:56 am 09:56 Sunny 77 25 42 5.6 29 29 VRB 3 6 29.85 1011 10 16 0.00 0.00
10:56 am 10:56 Sunny 82 27.8 42 5.6 24 24 NW 7 11 29.84 1010 10 16 0.00 0.00
11:56 am 11:56 Sunny 84 28.9 42 5.6 23 23 VRB 7 11 29.81 1010 10 16 0.00 0.00
12:56 pm 12:56 Sunny 87 30.6 42 5.6 21 21 W 8 13 29.80 1009 10 16 0.00 0.00
1:56 pm 13:56 Sunny 89 31.7 42 5.6 19 19 undefined N/A 29.77 1008 10 16 0.00 0.00
2:56 pm 14:56 Mostly Sunny 89 31.7 41 5 19 19 WNW 9 15 29.75 1008 10 16 0.00 0.00
3:56 pm 15:56 Mostly Sunny 90 32.2 39 3.9 17 17 W 13 20 29.73 1007 10 16 0.00 0.00
4:10 pm 16:10 Sunny 91 32.8 39 3.9 16 16 W 18 30 29.49 999 10 16 0.00 0.00
4:56 pm 16:56 Sunny 91 32.8 37 2.8 15 15 WSW 10 17 29.73 1007 10 16 0.00 0.00
5:56 pm 17:56 Sunny 90 32.2 33 0.6 13 13 WSW 18 30 29.73 1007 10 16 0.00 0.00
6:56 pm 18:56 Sunny 88 31.1 39 3.9 18 18 W 16 26 29.73 1007 10 16 0.00 0.00
7:56 pm 19:56 Sunny 84 28.9 38 3.3 19 19 NW 9 15 29.74 1007 10 16 0.00 0.00
8:56 pm 20:56 Clear 76 24.4 37 2.8 24 24 NNW 6 9 29.77 1008 10 16 0.00 0.00
9:56 pm 21:56 Clear 68 20 36 2.2 31 31 W 8 13 29.80 1009 10 16 0.00 0.00
10:56 pm 22:56 Clear 71 21.7 36 2.2 28 28 W 10 17 29.80 1009 10 16 0.00 0.00
11:56 pm 23:56 Clear 73 22.8 36 2.2 26 26 W 13 20 29.81 1010 10 16 0.00 0.00

Powered by AerisWeather